"Pseudo-MPEC" for A10RsTt

Created 2022 Dec 13 9:22:02 UT using Find_Orb

Click here for an explanation of pseudo-MPECs

 
 Astrometry: 
     A10RsTt* C2022 12 01.64853911 33 19.102+19 59 01.25   ~C1J7 19.02oVNEOCPT05
     A10RsTt  C2022 12 01.65079711 33 19.135+19 59 00.96   ~C1J7 19.07oVNEOCPT05
     A10RsTt  C2022 12 01.65305611 33 19.162+19 59 01.00   ~C1J7 18.74oVNEOCPT05
     A10RsTt  C2022 12 01.65486511 33 19.198+19 59 00.85   ~C1J7 18.61oVNEOCPT05

Station data:
(T05) ATLAS-HKO, Haleakala  (N20.707571 W156.257010)  US/Hawaii.  Observers
   L. Denneau, A. Heinze, H. Weiland, J. Tonry, H. Flewelling, A.
   Fitzsimmons, D. Young, B. Stalder. Measurers L. Denneau, A. Heinze, J.
   Tonry. 0.5-m f/2.0 Schmidt + CCD.

Orbital elements:  A10RsTt
   Perihelion 2019 Jul 4.02675 +/- 545 TT =  0:38:31 (JD 2458668.52675)
Epoch 2022 Dec  2.0 TT = JDT 2459915.5                           AutoNEOCP
M 103.69995307 +/- 100              (J2000 ecliptic)
n   0.08316132 +/- 0.333            Peri.   17.34725 +/- 60
a   5.19822531 +/- 13.9             Node   358.56283 +/- 33
e   0.3302123 +/- 0.2               Incl.   36.47974 +/- 40
P  11.85                   H 10.74  G  0.15   U 12.0  SR
q 3.48170702 +/- 2.13    Q 6.91474360 +/- 19.5
From 4 observations 2022 Dec. 1 (9.1 min); mean residual 0".06
Residuals in arcseconds: 
221201 T05  .01+  .06+    221201 T05  .08-  .05+    
221201 T05  .01+  .11-    221201 T05  .05+  .00     

Ephemerides (geocentric):
Date (UTC) HH   RA             Dec           delta  r     elong  mag " sig PA
---- --------  ------------   ------------  ------ ------ -----  --- --------
2022 12 13 09  11 35 36.095   +19 52 53.77  5.9228 6.0792  94.5 19.2  36d  14
2022 12 13 10  11 35 36.428   +19 52 53.46  5.9222 6.0793  94.5 19.2  36d  14
2022 12 13 11  11 35 36.760   +19 52 53.17  5.9216 6.0794  94.5 19.2  36d  14
2022 12 13 12  11 35 37.091   +19 52 52.88  5.9210 6.0795  94.6 19.2  36d  14
2022 12 13 13  11 35 37.421   +19 52 52.60  5.9204 6.0795  94.6 19.2  36d  14
2022 12 13 14  11 35 37.750   +19 52 52.33  5.9198 6.0796  94.7 19.2  36d  14
2022 12 13 15  11 35 38.078   +19 52 52.06  5.9192 6.0797  94.7 19.2  37d  14
2022 12 13 16  11 35 38.404   +19 52 51.80  5.9186 6.0798  94.7 19.2  37d  14
2022 12 13 17  11 35 38.730   +19 52 51.55  5.9180 6.0798  94.8 19.2  37d  14
2022 12 13 18  11 35 39.054   +19 52 51.30  5.9174 6.0799  94.8 19.2  37d  14
2022 12 13 19  11 35 39.377   +19 52 51.06  5.9169 6.0800  94.9 19.2  37d  14
2022 12 13 20  11 35 39.699   +19 52 50.83  5.9163 6.0801  94.9 19.2  37d  14
2022 12 13 21  11 35 40.020   +19 52 50.61  5.9157 6.0801  94.9 19.2  37d  14
2022 12 13 22  11 35 40.340   +19 52 50.39  5.9151 6.0802  95.0 19.2  37d  14
2022 12 13 23  11 35 40.658   +19 52 50.18  5.9145 6.0803  95.0 19.2  37d  14
2022 12 14 00  11 35 40.976   +19 52 49.98  5.9139 6.0804  95.1 19.2  37d  14
2022 12 14 01  11 35 41.292   +19 52 49.78  5.9133 6.0805  95.1 19.2  37d  14
2022 12 14 02  11 35 41.608   +19 52 49.59  5.9127 6.0805  95.1 19.2  37d  14
2022 12 14 03  11 35 41.922   +19 52 49.41  5.9121 6.0806  95.2 19.2  37d  14
2022 12 14 04  11 35 42.235   +19 52 49.23  5.9116 6.0807  95.2 19.2  37d  14
2022 12 14 05  11 35 42.546   +19 52 49.07  5.9110 6.0808  95.3 19.2  37d  14
2022 12 14 06  11 35 42.857   +19 52 48.91  5.9104 6.0808  95.3 19.2  37d  14
2022 12 14 07  11 35 43.167   +19 52 48.75  5.9098 6.0809  95.3 19.2  37d  14
2022 12 14 08  11 35 43.475   +19 52 48.60  5.9092 6.0810  95.4 19.2  37d  14
2022 12 14 09  11 35 43.782   +19 52 48.47  5.9086 6.0811  95.4 19.2  37d  14
2022 12 14 10  11 35 44.089   +19 52 48.33  5.9080 6.0811  95.5 19.2  37d  14
2022 12 14 11  11 35 44.394   +19 52 48.21  5.9074 6.0812  95.5 19.2  37d  14
2022 12 14 12  11 35 44.698   +19 52 48.09  5.9068 6.0813  95.5 19.2  37d  14
2022 12 14 13  11 35 45.000   +19 52 47.98  5.9063 6.0814  95.6 19.2  37d  14
2022 12 14 14  11 35 45.302   +19 52 47.87  5.9057 6.0814  95.6 19.2  37d  14
2022 12 14 15  11 35 45.602   +19 52 47.77  5.9051 6.0815  95.7 19.2  37d  14
2022 12 14 16  11 35 45.902   +19 52 47.68  5.9045 6.0816  95.7 19.2  37d  14
2022 12 14 17  11 35 46.200   +19 52 47.60  5.9039 6.0817  95.7 19.2  37d  14
2022 12 14 18  11 35 46.497   +19 52 47.52  5.9033 6.0817  95.8 19.2  37d  14
2022 12 14 19  11 35 46.793   +19 52 47.45  5.9027 6.0818  95.8 19.2  37d  14
2022 12 14 20  11 35 47.088   +19 52 47.39  5.9021 6.0819  95.9 19.2  37d  14
2022 12 14 21  11 35 47.381   +19 52 47.33  5.9015 6.0820  95.9 19.2  37d  14
2022 12 14 22  11 35 47.674   +19 52 47.29  5.9010 6.0821  95.9 19.2  37d  14
2022 12 14 23  11 35 47.965   +19 52 47.24  5.9004 6.0821  96.0 19.2  37d  14
2022 12 15 00  11 35 48.255   +19 52 47.21  5.8998 6.0822  96.0 19.2  37d  14
2022 12 15 01  11 35 48.544   +19 52 47.18  5.8992 6.0823  96.1 19.2  37d  14
2022 12 15 02  11 35 48.832   +19 52 47.16  5.8986 6.0824  96.1 19.2  37d  14
2022 12 15 03  11 35 49.119   +19 52 47.15  5.8980 6.0824  96.1 19.2  37d  14
2022 12 15 04  11 35 49.405   +19 52 47.14  5.8974 6.0825  96.2 19.2  37d  14
2022 12 15 05  11 35 49.689   +19 52 47.14  5.8968 6.0826  96.2 19.2  37d  14
2022 12 15 06  11 35 49.973   +19 52 47.15  5.8962 6.0827  96.3 19.2  37d  14
2022 12 15 07  11 35 50.255   +19 52 47.16  5.8957 6.0827  96.3 19.2  37d  14
2022 12 15 08  11 35 50.536   +19 52 47.19  5.8951 6.0828  96.3 19.2  37d  14